Flag for Germany Weather past 2 weeks in Falkensee, Brandenburg, Germany

Now
39 °F

Light rain. Passing clouds.


Feels Like: 30 °F
Forecast: 38 / 43 °F
Wind: 18 mph from West

Location: Berlin-Tegel

Current Time: Dec 20, 2014 at 6:44:21 PM

Latest Report: Dec 20, 2014 at 6:20 PM


Visibility: N/A

Pressure: 29.77 "Hg

Humidity: 87%

Dew point: 36 °F

Location of FalkenseeLocation

Historic Weather in Falkensee — Graph

°F

Falkensee temperature yesterday

Maximum temperature yesterday: 54 °F (at 12:20 AM)
Minimum temperature yesterday: 41 °F (at 11:50 PM)
Average temperature yesterday: 50 °F

Past Weeks' High & Low Weather Summary

 TemperatureHumidityPressure
High54 °F (Dec 19, 12:20 AM)100% (Dec 7, 2:20 AM)30.36 "Hg (Dec 7, 2:20 AM)
Low28 °F (Dec 9, 4:20 AM)66% (Dec 13, 11:50 AM)29.39 "Hg (Dec 12, 4:20 PM)
Average40 °F87%29.89 "Hg
* Reported Dec 5 5:20 PM — Dec 20 5:50 PM, Falkensee, Weather by CustomWeather, © 2014

Note: Actual official high and low records may vary slightly from our data, if they occured in-between our weather recording intervals... More about our weather records

Advertising

Falkensee weather history for previous 24 hours

 ConditionsComfort  
Time TempWeatherWind HumidityBarometerVisibility
5:50 PM
Dec 20
37 °FPassing clouds.17 mph93%29.77 "HgN/A
5:20 PM36 °FPassing clouds.15 mph93%29.77 "HgN/A
4:50 PM36 °FPartly cloudy.16 mph93%29.77 "HgN/A
4:20 PM36 °FPartly cloudy.15 mph93%29.74 "HgN/A
3:50 PM36 °FSprinkles. Broken clouds.17 mph93%29.77 "HgN/A
3:20 PM34 °FSprinkles. Partly sunny.13 mph100%29.77 "HgN/A
2:50 PM36 °FRain showers. Partly sunny.14 mph93%29.77 "Hg2 mi
2:20 PM39 °FSprinkles. Partly sunny.9 mph81%29.77 "HgN/A
1:20 PM45 °FLight rain. Partly sunny.23 mph71%29.74 "HgN/A
12:20 PM45 °FLight rain. Partly sunny.23 mph71%29.80 "HgN/A
11:50 AM45 °FPartly sunny.23 mph71%29.80 "HgN/A
11:20 AM45 °FPartly sunny.23 mph71%29.80 "HgN/A
10:50 AM45 °FPartly sunny.22 mph71%29.83 "HgN/A
10:20 AM45 °FPartly sunny.23 mph71%29.83 "HgN/A
9:50 AM45 °FPartly sunny.22 mph71%29.86 "HgN/A
9:20 AM43 °FPartly sunny.20 mph76%29.86 "HgN/A
8:50 AM43 °FPartly sunny.21 mph76%29.86 "HgN/A
8:20 AM43 °FBroken clouds.22 mph76%29.86 "HgN/A
7:50 AM43 °FPassing clouds.20 mph76%29.86 "HgN/A
7:20 AM43 °FPassing clouds.23 mph76%29.86 "HgN/A
6:50 AM43 °FPartly cloudy.23 mph76%29.86 "HgN/A
6:20 AM43 °FPassing clouds.22 mph76%29.86 "HgN/A
5:50 AM43 °FPartly cloudy.20 mph76%29.89 "HgN/A
5:20 AM43 °FPassing clouds.21 mph76%29.89 "HgN/A
4:50 AM43 °FLight rain. Passing clouds.22 mph76%29.89 "HgN/A
4:20 AM43 °FPassing clouds.16 mph76%29.89 "HgN/A
3:50 AM43 °FPassing clouds.17 mph76%29.89 "HgN/A
3:20 AM41 °FPassing clouds.14 mph87%29.89 "HgN/A
2:50 AM41 °FPassing clouds.20 mph87%29.89 "HgN/A
2:20 AM41 °FPassing clouds.21 mph81%29.86 "HgN/A
1:50 AM41 °FClear.18 mph81%29.86 "Hg10 mi
1:20 AM41 °FPassing clouds.18 mph81%29.86 "HgN/A
12:50 AM41 °FPassing clouds.15 mph81%29.86 "HgN/A
12:20 AM41 °FPassing clouds.13 mph87%29.86 "HgN/A
11:50 PM
Dec 19
41 °FPassing clouds.17 mph81%29.86 "HgN/A
11:20 PM43 °FPartly cloudy.17 mph81%29.86 "HgN/A
10:50 PM43 °FLight rain. Passing clouds.15 mph81%29.83 "HgN/A
10:20 PM43 °FPassing clouds.15 mph81%29.83 "HgN/A
9:50 PM43 °FPassing clouds.16 mph81%29.83 "HgN/A
9:20 PM43 °FPassing clouds.14 mph87%29.83 "HgN/A
8:50 PM43 °FPassing clouds.12 mph87%29.80 "HgN/A
8:20 PM45 °FPassing clouds.15 mph81%29.80 "HgN/A
7:50 PM45 °FRain. Passing clouds.15 mph81%29.80 "HgN/A
7:20 PM46 °FPassing clouds.8 mph76%29.77 "HgN/A
6:50 PM46 °FPassing clouds.10 mph76%29.74 "HgN/A
6:20 PM48 °FPassing clouds.15 mph76%29.74 "HgN/A
Weather by CustomWeather, © 2014

See weather overviewHow to use our weather pages